FW5336 Weather Reports


Display with metric or nautical units.
time (UTC)temp
F
wind
direction
speed
MPH
gust
MPH
rain 1hr
in
rain 24hr
in
rain mn
in
humidity
%
barometer
mb
20260902191520 96 267 2.0 6.0 0.00 0.00 0.00 50 1015.2
20260902191015 97 247 4.0 6.0 0.00 0.00 0.00 49 1015.1
20260902190510 98 348 4.0 10.0 0.00 0.00 0.00 49 1015.2
20260902190006 97 260 3.0 5.0 0.00 0.00 0.00 51 1015.3
20260902185502 97 181 2.0 9.0 0.00 0.00 0.00 50 1015.4
20260902184956 98 294 1.0 3.0 0.00 0.00 0.00 48 1015.5
20260902184452 98 277 2.0 6.0 0.00 0.00 0.00 51 1015.4
20260902183947 97 243 3.0 7.0 0.00 0.00 0.00 49 1015.5
20260902183444 98 282 4.0 6.0 0.00 0.00 0.00 49 1015.5
20260902182939 98 266 5.0 9.0 0.00 0.00 0.00 49 1015.7
20260902182435 98 200 2.0 3.0 0.00 0.00 0.00 50 1015.5
20260902181932 97 266 3.0 5.0 0.00 0.00 0.00 50 1015.6
20260902181427 97 317 3.0 8.0 0.00 0.00 0.00 49 1015.7
20260902180927 97 243 4.0 7.0 0.00 0.00 0.00 51 1015.9
20260902180422 97 262 2.0 5.0 0.00 0.00 0.00 51 1016.1
20260902175918 96 249 2.0 9.0 0.00 0.00 0.00 51 1015.9
20260902175412 95 282 0.0 6.0 0.00 0.00 0.00 52 1016.1
20260902174908 96 284 3.0 7.0 0.00 0.00 0.00 51 1016.1
20260902174405 96 326 6.0 9.0 0.00 0.00 0.00 51 1016.1
20260902173901 96 341 4.0 6.0 0.00 0.00 0.00 51 1016.1
20260902173400 97 257 5.0 7.0 0.00 0.00 0.00 50 1016.2
20260902172855 97 205 1.0 10.0 0.00 0.00 0.00 49 1016.3
20260902172354 98 291 4.0 7.0 0.00 0.00 0.00 51 1016.4
20260902171849 96 121 1.0 5.0 0.00 0.00 0.00 50 1016.3
20260902171345 96 259 1.0 8.0 0.00 0.00 0.00 52 1016.5
20260902170841 96 236 5.0 8.0 0.00 0.00 0.00 51 1016.6
20260902170336 96 272 5.0 7.0 0.00 0.00 0.00 53 1016.6
20260902165832 95 172 1.0 3.0 0.00 0.00 0.00 53 1016.5
20260902165331 95 281 7.0 10.0 0.00 0.00 0.00 53 1016.6
20260902164825 95 228 3.0 5.0 0.00 0.00 0.00 55 1016.6
20260902164320 96 252 1.0 5.0 0.00 0.00 0.00 55 1016.6
20260902163814 96 306 5.0 7.0 0.00 0.00 0.00 54 1016.9
20260902163309 96 240 0.0 3.0 0.00 0.00 0.00 56 1016.7
20260902162807 95 244 0.0 1.0 0.00 0.00 0.00 56 1016.9
20260902162306 94 246 4.0 6.0 0.00 0.00 0.00 58 1016.9
20260902161802 94 264 2.0 5.0 0.00 0.00 0.00 57 1017.1
20260902161258 94 197 1.0 2.0 0.00 0.00 0.00 58 1016.9
20260902160754 94 267 1.0 2.0 0.00 0.00 0.00 58 1017.2
20260902160249 93 329 2.0 6.0 0.00 0.00 0.00 58 1017.0
20260902155747 93 333 3.0 3.0 0.00 0.00 0.00 60 1017.1
20260902155246 92 250 1.0 5.0 0.00 0.00 0.00 60 1017.2
20260902154741 92 244 1.0 3.0 0.00 0.00 0.00 61 1017.1
20260902154236 91 247 2.0 5.0 0.00 0.00 0.00 61 1017.0
20260902153729 91 265 1.0 2.0 0.00 0.00 0.00 61 1017.1
20260902153224 91 260 2.0 7.0 0.00 0.00 0.00 61 1017.1
20260902152720 91 241 3.0 7.0 0.00 0.00 0.00 62 1017.0
20260902152216 92 220 1.0 3.0 0.00 0.00 0.00 62 1017.0
20260902151711 91 243 1.0 5.0 0.00 0.00 0.00 64 1017.1
20260902151206 91 272 2.0 3.0 0.00 0.00 0.00 64 1017.0
20260902150701 91 260 1.0 5.0 0.00 0.00 0.00 65 1017.0
20260902150157 90 196 2.0 2.0 0.00 0.00 0.00 65 1017.0
20260902145656 90 244 2.0 6.0 0.00 0.00 0.00 65 1017.1
20260902145155 90 229 4.0 5.0 0.00 0.00 0.00 65 1017.1
20260902144652 89 272 1.0 2.0 0.00 0.00 0.00 68 1016.9
20260902144148 89 246 1.0 5.0 0.00 0.00 0.00 68 1017.1
20260902143648 88 239 1.0 2.0 0.00 0.00 0.00 69 1016.9
20260902143143 88 249 1.0 2.0 0.00 0.00 0.00 70 1016.9
20260902142639 88 261 0.0 1.0 0.00 0.00 0.00 70 1017.0
20260902142135 88 234 0.0 2.0 0.00 0.00 0.00 69 1017.1
20260902141634 87 327 2.0 2.0 0.00 0.00 0.00 71 1017.2
20260902141130 87 161 0.0 2.0 0.00 0.00 0.00 71 1016.9
20260902140625 87 224 1.0 2.0 0.00 0.00 0.00 71 1017.1
20260902140120 86 247 1.0 3.0 0.00 0.00 0.00 73 1017.1
20260902135619 86 247 1.0 2.0 0.00 0.00 0.00 72 1017.0
20260902135114 86 219 0.0 3.0 0.00 0.00 0.00 74 1016.9
20260902134609 86 228 0.0 1.0 0.00 0.00 0.00 75 1017.0
20260902134104 85 240 0.0 1.0 0.00 0.00 0.00 75 1017.0
20260902133559 84 254 0.0 6.0 0.00 0.00 0.00 75 1016.9
20260902133059 84 283 1.0 2.0 0.00 0.00 0.00 77 1017.1
20260902132554 84 250 1.0 1.0 0.00 0.00 0.00 77 1017.1
20260902132049 83 250 1.0 2.0 0.00 0.00 0.00 79 1016.9
20260902131545 83 263 3.0 3.0 0.00 0.00 0.00 79 1017.1
20260902131039 83 249 0.0 2.0 0.00 0.00 0.00 79 1017.1
20260902130536 83 264 3.0 3.0 0.00 0.00 0.00 80 1017.2
20260902130031 82 264 1.0 2.0 0.00 0.00 0.00 81 1017.1
20260902125527 82 233 0.0 2.0 0.00 0.00 0.00 81 1017.3
20260902125022 81 241 0.0 1.0 0.00 0.00 0.00 83 1017.2
20260902124518 80 266 0.0 1.0 0.00 0.00 0.00 84 1017.1
20260902124013 80 239 1.0 1.0 0.00 0.00 0.00 85 1016.9
20260902123509 79 266 2.0 3.0 0.00 0.00 0.00 88 1017.1
20260902123008 78 249 0.0 1.0 0.00 0.00 0.00 89 1017.1
20260902122503 78 250 0.0 1.0 0.00 0.00 0.00 91 1017.1
20260902121958 77 265 1.0 2.0 0.00 0.00 0.00 92 1017.1
20260902121454 77 251 0.0 1.0 0.00 0.00 0.00 94 1017.0
20260902120948 76 248 0.0 0.0 0.00 0.00 0.00 95 1016.7
20260902120445 76 246 0.0 2.0 0.00 0.00 0.00 96 1017.0
20260902115944 76 276 1.0 2.0 0.00 0.00 0.00 96 1016.7
20260902115441 75 252 1.0 1.0 0.00 0.00 0.00 96 1017.0
20260902114937 75 249 0.0 1.0 0.00 0.00 0.00 96 1016.7
20260902114432 75 240 0.0 1.0 0.00 0.00 0.00 96 1016.6
20260902113927 75 252 0.0 1.0 0.00 0.00 0.00 96 1016.7
20260902113423 75 254 0.0 1.0 0.00 0.00 0.00 96 1016.9
20260902112922 75 268 0.0 1.0 0.00 0.00 0.00 96 1017.0
20260902112418 75 230 1.0 1.0 0.00 0.00 0.00 96 1016.7
20260902111914 75 251 0.0 0.0 0.00 0.00 0.00 96 1017.0
20260902111410 75 246 0.0 1.0 0.00 0.00 0.00 96 1016.9
20260902110906 75 249 0.0 0.0 0.00 0.00 0.00 96 1017.0
20260902110402 75 232 0.0 1.0 0.00 0.00 0.00 96 1016.9
20260902105901 75 249 0.0 1.0 0.00 0.00 0.00 96 1017.1
20260902105356 75 235 0.0 1.0 0.00 0.00 0.00 96 1016.7
20260902104851 75 239 0.0 0.0 0.00 0.00 0.00 96 1017.1
20260902104348 75 239 0.0 0.0 0.00 0.00 0.00 96 1017.0
20260902103847 75 292 0.0 0.0 0.00 0.00 0.00 95 1016.9
20260902103342 75 234 0.0 0.0 0.00 0.00 0.00 95 1017.0
20260902102837 75 239 0.0 0.0 0.00 0.00 0.00 95 1016.7
20260902102335 75 241 0.0 0.0 0.00 0.00 0.00 95 1016.5
20260902101830 75 236 0.0 0.0 0.00 0.00 0.00 95 1016.5
20260902101324 75 236 0.0 0.0 0.00 0.00 0.00 94 1016.5
20260902100818 76 239 0.0 0.0 0.00 0.00 0.00 94 1016.5
20260902100312 76 239 0.0 0.0 0.00 0.00 0.00 94 1016.5
20260902095807 76 236 0.0 0.0 0.00 0.00 0.00 94 1016.5
20260902095306 76 241 0.0 0.0 0.00 0.00 0.00 93 1016.6
20260902094756 76 240 0.0 1.0 0.00 0.00 0.00 93 1016.7
20260902094253 76 239 0.0 0.0 0.00 0.00 0.00 93 1016.6
20260902093752 76 229 0.0 0.0 0.00 0.00 0.00 93 1016.6
20260902093248 77 239 0.0 0.0 0.00 0.00 0.00 93 1016.6
20260902092746 76 239 0.0 0.0 0.00 0.00 0.00 93 1016.5
20260902092242 76 239 0.0 2.0 0.00 0.00 0.00 93 1016.7
20260902091741 76 280 0.0 2.0 0.00 0.00 0.00 93 1016.5
20260902091238 76 241 0.0 1.0 0.00 0.00 0.00 94 1016.4
20260902090734 76 239 0.0 1.0 0.00 0.00 0.00 94 1016.6
20260902090233 76 227 0.0 0.0 0.00 0.00 0.00 94 1016.3
20260902085727 76 256 0.0 1.0 0.00 0.00 0.00 94 1016.4
20260902085223 76 223 0.0 1.0 0.00 0.00 0.00 94 1016.4
20260902084719 75 245 0.0 0.0 0.00 0.00 0.00 94 1016.4
20260902084214 75 239 0.0 0.0 0.00 0.00 0.00 93 1016.4
20260902083709 75 239 0.0 1.0 0.00 0.00 0.00 93 1016.3
20260902083209 75 239 0.0 1.0 0.00 0.00 0.00 93 1016.4
20260902082704 75 239 0.0 1.0 0.00 0.00 0.00 93 1016.3
20260902082201 75 239 0.0 1.0 0.00 0.00 0.00 93 1016.4
20260902081657 75 242 0.0 0.0 0.00 0.00 0.00 93 1016.3
20260902081152 75 241 0.0 0.0 0.00 0.00 0.00 92 1016.4
20260902080647 75 249 0.0 0.0 0.00 0.00 0.00 92 1016.2
20260902080143 75 229 0.0 0.0 0.00 0.00 0.00 92 1016.4
20260902075643 75 235 0.0 0.0 0.00 0.00 0.00 92 1016.3
20260902075139 75 239 0.0 0.0 0.00 0.00 0.00 92 1016.3
20260902074634 75 241 0.0 0.0 0.00 0.00 0.00 91 1016.4
20260902074129 75 239 0.0 0.0 0.00 0.00 0.00 91 1016.3
20260902073624 75 242 0.0 0.0 0.00 0.00 0.00 91 1016.3
20260902073121 75 239 0.0 0.0 0.00 0.00 0.00 91 1016.4
20260902072616 75 234 0.0 0.0 0.00 0.00 0.00 91 1016.3
20260902072112 75 232 0.0 0.0 0.00 0.00 0.00 91 1016.3
20260902071607 75 242 0.0 0.0 0.00 0.00 0.00 90 1016.4
20260902071103 75 241 0.0 0.0 0.00 0.00 0.00 90 1016.1
20260902070559 75 239 0.0 0.0 0.00 0.00 0.00 90 1016.1
20260902070053 76 232 0.0 0.0 0.00 0.00 0.00 90 1016.0
20260902065547 75 242 0.0 0.0 0.00 0.00 0.00 90 1016.4
20260902065042 76 239 0.0 0.0 0.00 0.00 0.00 90 1016.4
20260902064538 75 234 0.0 1.0 0.00 0.00 0.00 90 1016.2
20260902064033 75 232 0.0 0.0 0.00 0.00 0.00 90 1016.2
20260902063533 75 235 0.0 0.0 0.00 0.00 0.00 90 1016.5
20260902063028 75 235 0.0 0.0 0.00 0.00 0.00 89 1016.5
20260902062526 75 239 0.0 0.0 0.00 0.00 0.00 89 1016.5
20260902062022 75 239 0.0 0.0 0.00 0.00 0.00 89 1016.6
20260902061517 76 236 0.0 0.0 0.00 0.00 0.00 89 1016.5
20260902061013 76 234 0.0 0.0 0.00 0.00 0.00 89 1016.5
20260902060509 76 234 0.0 0.0 0.00 0.00 0.00 89 1016.7
20260902060005 76 235 0.0 0.0 0.00 0.00 0.00 89 1016.9
20260902055501 76 237 0.0 0.0 0.00 0.00 0.00 88 1017.0
20260902054956 76 232 0.0 0.0 0.00 0.00 0.00 88 1017.0
20260902054455 76 235 0.0 0.0 0.00 0.00 0.00 88 1016.9
20260902053951 76 231 0.0 0.0 0.00 0.00 0.00 88 1017.0
20260902053447 76 234 0.0 0.0 0.00 0.00 0.00 88 1016.9
20260902052945 76 234 0.0 0.0 0.00 0.00 0.00 88 1016.7
20260902052441 76 234 0.0 0.0 0.00 0.00 0.00 88 1016.7
20260902051936 76 234 0.0 0.0 0.00 0.00 0.00 88 1017.0
20260902051431 76 234 0.0 0.0 0.00 0.00 0.00 88 1016.7
20260902050930 76 234 0.0 0.0 0.00 0.00 0.00 88 1016.9
20260902050429 76 227 0.0 1.0 0.00 0.00 0.00 88 1016.6
20260902045924 77 239 0.0 0.0 0.00 0.00 0.00 87 1016.7
20260902045420 77 245 0.0 0.0 0.00 0.00 0.00 87 1017.0
20260902044916 77 248 0.0 0.0 0.00 0.00 0.00 87 1017.1
20260902044411 77 233 0.0 0.0 0.00 0.00 0.00 87 1016.9
20260902043906 77 239 0.0 0.0 0.00 0.00 0.00 87 1016.9
20260902043402 77 252 1.0 1.0 0.00 0.00 0.00 87 1016.7
20260902042857 77 235 0.0 0.0 0.00 0.00 0.00 88 1016.7
20260902042356 77 232 0.0 0.0 0.00 0.00 0.00 88 1016.9
20260902041851 77 239 0.0 0.0 0.00 0.00 0.00 88 1016.9
20260902041346 77 239 0.0 0.0 0.00 0.00 0.00 88 1017.0
20260902040845 77 239 0.0 0.0 0.00 0.00 0.00 87 1017.0
20260902040340 77 239 0.0 0.0 0.00 0.00 0.00 87 1016.9
20260902035838 77 242 0.0 0.0 0.00 0.00 0.00 87 1016.9
20260902035335 77 241 0.0 0.0 0.00 0.00 0.00 87 1016.6
20260902034833 77 239 0.0 0.0 0.00 0.00 0.00 87 1016.6
20260902034329 77 237 0.0 0.0 0.00 0.00 0.00 87 1016.7
20260902033826 77 245 0.0 0.0 0.00 0.00 0.00 86 1016.6
20260902033322 77 245 0.0 0.0 0.00 0.00 0.00 86 1016.7
20260902032821 77 245 0.0 0.0 0.00 0.00 0.00 86 1016.4
20260902032316 77 239 0.0 0.0 0.00 0.00 0.00 86 1016.4
20260902031815 77 239 0.0 0.0 0.00 0.00 0.00 86 1016.5
20260902031312 78 242 0.0 0.0 0.00 0.00 0.00 85 1016.4
20260902030807 78 225 0.0 1.0 0.00 0.00 0.00 85 1016.3
20260902030302 78 248 0.0 0.0 0.00 0.00 0.00 85 1016.4
20260902025801 78 239 0.0 0.0 0.00 0.00 0.00 85 1016.4
20260902025257 78 232 0.0 1.0 0.00 0.00 0.00 84 1016.3
20260902024750 78 231 0.0 1.0 0.00 0.00 0.00 84 1016.3
20260902024246 78 217 0.0 1.0 0.00 0.00 0.00 84 1016.2
20260902023742 78 233 0.0 0.0 0.00 0.00 0.00 84 1016.4
20260902023237 78 232 0.0 0.0 0.00 0.00 0.00 84 1016.5
20260902022736 78 232 0.0 1.0 0.00 0.00 0.00 84 1016.3
20260902022232 78 235 0.0 0.0 0.00 0.00 0.00 84 1016.3
20260902021728 79 239 0.0 0.0 0.00 0.00 0.00 83 1016.4
20260902021227 79 241 0.0 0.0 0.00 0.00 0.00 83 1016.4
20260902020724 79 239 0.0 0.0 0.00 0.00 0.00 83 1016.3
20260902020219 79 242 0.0 0.0 0.00 0.00 0.00 82 1016.4
20260902015714 79 232 0.0 1.0 0.00 0.00 0.00 82 1016.4
20260902015211 80 247 0.0 0.0 0.00 0.00 0.00 82 1016.6
20260902014706 80 242 0.0 1.0 0.00 0.00 0.00 82 1016.7
20260902014203 80 241 0.0 0.0 0.00 0.00 0.00 81 1016.7
20260902013701 80 240 1.0 2.0 0.00 0.00 0.00 81 1016.7
20260902013156 80 252 0.0 2.0 0.00 0.00 0.00 81 1016.7
20260902012652 80 254 0.0 1.0 0.00 0.00 0.00 81 1016.6
20260902012147 80 255 1.0 1.0 0.00 0.00 0.00 80 1016.7
20260902011643 80 255 0.0 1.0 0.00 0.00 0.00 80 1016.6
20260902011137 80 261 1.0 2.0 0.00 0.00 0.00 80 1016.6
20260902010636 80 255 0.0 1.0 0.00 0.00 0.00 80 1016.4
20260902010133 81 248 0.0 1.0 0.00 0.00 0.00 80 1016.4
20260902005630 81 229 1.0 3.0 0.00 0.00 0.00 80 1016.2
20260902005126 81 252 0.0 1.0 0.00 0.00 0.00 79 1016.2
20260902004626 81 252 1.0 1.0 0.00 0.00 0.00 79 1016.1
20260902004121 81 252 0.0 2.0 0.00 0.00 0.00 78 1015.9
20260902003616 81 230 2.0 2.0 0.00 0.00 0.00 78 1016.1
20260902003112 82 269 0.0 1.0 0.00 0.00 0.00 79 1016.2
20260902002607 82 273 1.0 3.0 0.00 0.00 0.00 79 1016.1
20260902002102 82 240 1.0 1.0 0.00 0.00 0.00 79 1016.2
20260902001556 82 279 1.0 5.0 0.00 0.00 0.00 79 1016.1
20260902001052 82 269 1.0 5.0 0.00 0.00 0.00 79 1016.0
20260902000547 82 260 3.0 6.0 0.00 0.00 0.00 79 1016.1
20260902000042 82 242 1.0 1.0 0.00 0.00 0.00 79 1016.0
20260901235536 83 279 1.0 2.0 0.00 0.00 0.00 78 1016.0
20260901235032 83 237 1.0 3.0 0.00 0.00 0.00 78 1016.1
20260901234530 83 252 0.0 2.0 0.00 0.00 0.00 77 1016.1
20260901234026 83 253 0.0 2.0 0.00 0.00 0.00 77 1016.1
20260901233525 84 247 1.0 1.0 0.00 0.00 0.00 76 1016.1
20260901233022 84 281 3.0 6.0 0.00 0.00 0.00 76 1016.1
20260901232517 84 314 2.0 6.0 0.00 0.00 0.00 76 1015.9
20260901232012 84 271 3.0 3.0 0.00 0.00 0.00 75 1015.9
20260901231509 84 223 3.0 6.0 0.00 0.00 0.00 75 1016.2
20260901231005 85 246 0.0 1.0 0.00 0.00 0.00 75 1016.0
20260901230504 85 303 2.0 9.0 0.00 0.00 0.00 74 1016.2
20260901225959 85 259 1.0 2.0 0.00 0.00 0.00 74 1016.1
20260901225454 86 268 0.0 6.0 0.00 0.00 0.00 73 1016.2
20260901224949 87 278 1.0 6.0 0.00 0.00 0.00 72 1016.2
20260901224444 87 247 1.0 2.0 0.00 0.00 0.00 72 1016.2
20260901223941 87 267 2.0 3.0 0.00 0.00 0.00 72 1016.0
20260901223436 87 267 2.0 5.0 0.00 0.00 0.00 72 1016.1
20260901222932 87 262 1.0 7.0 0.00 0.00 0.00 72 1016.1
20260901222428 88 270 5.0 7.0 0.00 0.00 0.00 71 1016.1
20260901221924 87 197 2.0 7.0 0.00 0.00 0.00 72 1016.2
20260901221419 87 259 0.0 2.0 0.00 0.00 0.00 73 1016.1
20260901220914 89 286 1.0 3.0 0.00 0.00 0.00 71 1016.2
20260901220413 89 280 1.0 2.0 0.00 0.00 0.00 72 1016.0
20260901215912 89 301 1.0 3.0 0.00 0.00 0.00 73 1015.7
20260901215411 88 209 0.0 3.0 0.00 0.00 0.00 73 1015.8
20260901214910 89 241 1.0 3.0 0.00 0.00 0.00 72 1016.0
20260901214409 89 245 0.0 1.0 0.00 0.00 0.00 73 1015.6
20260901213908 89 232 1.0 6.0 0.00 0.00 0.00 71 1015.7
20260901213403 90 268 1.0 2.0 0.00 0.00 0.00 70 1015.7
20260901212902 89 205 0.0 2.0 0.00 0.00 0.00 71 1015.8
20260901212358 89 269 1.0 5.0 0.00 0.00 0.00 72 1015.7
20260901211855 89 223 0.0 7.0 0.00 0.00 0.00 71 1015.6
20260901211350 89 301 3.0 3.0 0.00 0.00 0.00 71 1015.8
20260901210846 89 243 4.0 6.0 0.00 0.00 0.00 70 1015.6
20260901210341 90 246 1.0 1.0 0.00 0.00 0.00 70 1015.7
20260901205838 90 296 2.0 7.0 0.00 0.00 0.00 69 1015.7
20260901205337 91 228 0.0 2.0 0.00 0.00 0.00 68 1015.8
20260901204832 92 243 2.0 3.0 0.00 0.00 0.00 66 1016.0
20260901204328 90 215 1.0 6.0 0.00 0.00 0.00 69 1015.9
20260901203824 90 94 1.0 5.0 0.00 0.00 0.00 70 1015.8
20260901203322 90 253 2.0 8.0 0.00 0.00 0.00 69 1015.9
20260901202817 91 292 3.0 5.0 0.00 0.00 0.00 68 1015.7
20260901202307 91 238 3.0 6.0 0.00 0.00 0.00 68 1015.9
20260901201803 90 308 1.0 5.0 0.00 0.00 0.00 67 1015.9
20260901201302 90 254 3.0 5.0 0.00 0.00 0.00 69 1015.8
20260901200756 92 275 2.0 6.0 0.00 0.00 0.00 66 1015.9
20260901200252 91 264 4.0 6.0 0.00 0.00 0.00 67 1016.1
20260901195750 91 259 1.0 2.0 0.00 0.00 0.00 68 1015.9
20260901195250 91 305 5.0 7.0 0.00 0.00 0.00 66 1015.9
20260901194745 91 287 3.0 6.0 0.00 0.00 0.00 67 1016.0
20260901194240 91 279 1.0 2.0 0.00 0.00 0.00 68 1015.9
20260901193736 90 274 0.0 3.0 0.00 0.00 0.00 69 1016.2
20260901193235 90 281 2.0 6.0 0.00 0.00 0.00 66 1016.1
20260901192730 90 271 1.0 2.0 0.00 0.00 0.00 67 1016.1
20260901192225 90 278 3.0 7.0 0.00 0.00 0.00 66 1016.2
20260901191721 90 286 2.0 6.0 0.00 0.00 0.00 66 1016.3